QPF
0.00 0.00 0.00 0.00 0.00 0.00 0.00 0.00 0.00 0.00 0.00 0.00 0.00 0.00 0.00 0.00 0.00 0.00 0.00 0.00 0.00 0.00 0.00 0.00 0.00 0.00 0.00 0.00 0.00 0.00 0.00 0.00 0.00 0.00 0.00 0.00 0.00 0.00 0.00 0.00 0.00 0.00 0.00 0.00
0.00 0.00 0.00 0.00 0.00 0.00 0.00 0.00 0.00 0.00 0.00 0.00 0.00 0.00 0.00 0.00 0.00 0.00 0.00 0.00 0.00 0.00 0.00 0.00 0.00 0.00 0.00 0.00 0.00 0.00 0.00 0.00 0.00 0.00 0.00 0.00 0.00 0.00 0.00 0.00 0.00 0.00 0.00 0.00
0.00 0.00 0.00 0.00 0.00 0.00 0.00 0.00 0.00 0.00 0.00 0.00 0.00 0.00 0.00 0.00 0.00 0.00 0.00 0.00 0.00 0.00 0.00 0.00 0.00 0.00 0.00 0.00 0.00 0.00 0.00 0.00 0.00 0.00 0.00 0.00 0.00 0.00 0.00 0.00 0.00 0.00 0.00 0.00
0.00 0.00 0.00 0.00 0.00 0.00 0.00 0.00 0.00 0.00 0.00 0.00 0.00 0.00 0.00 0.00 0.00 0.00 0.00 0.00 0.00 0.00 0.00 0.00 0.00 0.00 0.00 0.00 0.00 0.00 0.00 0.00 0.00 0.00 0.00 0.00 0.00 0.00 0.00 0.00 0.00 0.00 0.00 0.00
0.00 0.00 0.00 0.00 0.00 0.00 0.00 0.01 0.00 0.00 0.00 0.00 0.00 0.00 0.00 0.00 0.00 0.00 0.00 0.00 0.00 0.00 0.00 0.00 0.00 0.00 0.00 0.00 0.00 0.00 0.00 0.00 0.00 0.00 0.00 0.00 0.00 0.00 0.00 0.00 0.00 0.00 0.00 0.00
0.00 0.00 0.00 0.00 0.00 0.00 0.00 0.00 0.00 0.00 0.00 0.00 0.00 0.00 0.00 0.00 0.00 0.00 0.00 0.00 0.00 0.00 0.00 0.00 0.00 0.00 0.00 0.00 0.00 0.00 0.00 0.00 0.00 0.00 0.00 0.00 0.00 0.00 0.00 0.00 0.00 0.00 0.00 0.00
0.00 0.00 0.00 0.00 0.00 0.00 0.00 0.00 0.00 0.00 0.00 0.00 0.00 0.00 0.00 0.00 0.00 0.00 0.00 0.00 0.00 0.00 0.00 0.00 0.00 0.00 0.00 0.00 0.00 0.00 0.00 0.00 0.00 0.00 0.00 0.00 0.00 0.00 0.00 0.00 0.00 0.00 0.00 0.00
0.00 0.00 0.00 0.00 0.00 0.00 0.01 0.00 0.00 0.00 0.00 0.00 0.00 0.00 0.00 0.00 0.00 0.00 0.00 0.00 0.00 0.00 0.00 0.00 0.00 0.00 0.00 0.00 0.00 0.00 0.00 0.00 0.00 0.00 0.00 0.00 0.00 0.00 0.00 0.00 0.00 0.00 0.00 0.00
0.00 0.00 0.00 0.00 0.00 0.00 0.00 0.00 0.00 0.00 0.00 0.00 0.00 0.00 0.00 0.00 0.00 0.00 0.00 0.00 0.00 0.00 0.00 0.00 0.00 0.00 0.00 0.00 0.00 0.00 0.00 0.00 0.00 0.00 0.00 0.00 0.00 0.00 0.00 0.00 0.00 0.00 0.00 0.00
0.00 0.00 0.00 0.00 0.00 0.00 0.00 0.00 0.00 0.00 0.00 0.00 0.00 0.00 0.00 0.00 0.00 0.00 0.00 0.00 0.00 0.00 0.00 0.00 0.00 0.00 0.00 0.00 0.00 0.00 0.00 0.00 0.00 0.00 0.00 0.00 0.00 0.00 0.00 0.00 0.00 0.00 0.00 0.00
0.00 0.00 0.00 0.00 0.00 0.00 0.00 0.00 0.00 0.00 0.00 0.00 0.00 0.00 0.00 0.00 0.00 0.00 0.00 0.00 0.00 0.00 0.00 0.00 0.00 0.00 0.00 0.00 0.00 0.00 0.00 0.00 0.00 0.00 0.00 0.00 0.00 0.00 0.00 0.00 0.00 0.00 0.00 0.00
0.00 0.00 0.00 0.00 0.00 0.00 0.00 0.00 0.00 0.00 0.00 0.00 0.00 0.00 0.00 0.00 0.00 0.00 0.00 0.00 0.00 0.00 0.00 0.00 0.00 0.00 0.00 0.00 0.00 0.00 0.00 0.00 0.00 0.00 0.00 0.00 0.00 0.00 0.00 0.00 0.00 0.00 0.00 0.00
0.00 0.00 0.00 0.00 0.00 0.00 0.00 0.00 0.00 0.00 0.00 0.00 0.00 0.00 0.00 0.00 0.00 0.00 0.00 0.00 0.00 0.00 0.00 0.00 0.00 0.00 0.00 0.00 0.00 0.00 0.00 0.00 0.00 0.00 0.00 0.00 0.00 0.00 0.00 0.00 0.00 0.00 0.00 0.00
0.00 0.00 0.00 0.00 0.00 0.00 0.00 0.00 0.00 0.00 0.00 0.00 0.00 0.00 0.00 0.00 0.00 0.00 0.00 0.00 0.00 0.00 0.00 0.00 0.00 0.00 0.00 0.00 0.00 0.00 0.00 0.00 0.00 0.00 0.00 0.00 0.00 0.00 0.00 0.00 0.00 0.00 0.00 0.00
0.00 0.00 0.00 0.00 0.00 0.00 0.00 0.00 0.00 0.00 0.00 0.00 0.00 0.00 0.00 0.00 0.00 0.00 0.00 0.00 0.00 0.00 0.00 0.00 0.00 0.00 0.00 0.00 0.00 0.00 0.00 0.00 0.00 0.00 0.00 0.00 0.00 0.00 0.00 0.00 0.00 0.00 0.00 0.00
0.00 0.00 0.00 0.00 0.00 0.00 0.00 0.00 0.00 0.00 0.00 0.00 0.00 0.00 0.00 0.00 0.00 0.00 0.00 0.00 0.00 0.00 0.00 0.00 0.00 0.00 0.00 0.00 0.00 0.00 0.00 0.00 0.00 0.00 0.00 0.00 0.00 0.00 0.00 0.00 0.00 0.00 0.00 0.00
0.00 0.00 0.00 0.00 0.00 0.00 0.00 0.00 0.00 0.00 0.00 0.00 0.00 0.00 0.00 0.00 0.00 0.00 0.00 0.00 0.00 0.00 0.00 0.00 0.00 0.00 0.00 0.00 0.00 0.00 0.00 0.00 0.00 0.00 0.00 0.00 0.00 0.00 0.00 0.00 0.00 0.00 0.00 0.00
0.00 0.00 0.00 0.00 0.00 0.00 0.00 0.00 0.00 0.00 0.00 0.00 0.00 0.00 0.00 0.00 0.00 0.00 0.00 0.00 0.00 0.00 0.00 0.00 0.00 0.00 0.00 0.00 0.00 0.00 0.00 0.00 0.00 0.00 0.00 0.00 0.00 0.00 0.00 0.00 0.00 0.00 0.00 0.00
0.00 0.00 0.00 0.00 0.00 0.00 0.00 0.00 0.00 0.00 0.00 0.00 0.00 0.00 0.00 0.00 0.00 0.00 0.00 0.00 0.00 0.00 0.00 0.00 0.00 0.00 0.00 0.00 0.00 0.00 0.00 0.00 0.00 0.00 0.00 0.00 0.00 0.00 0.00 0.00 0.00 0.00 0.00 0.00
0.00 0.00 0.00 0.00 0.00 0.00 0.00 0.00 0.00 0.00 0.00 0.00 0.00 0.00 0.00 0.00 0.00 0.00 0.00 0.00 0.00 0.00 0.00 0.00 0.00 0.00 0.00 0.00 0.00 0.00 0.00 0.00 0.00 0.00 0.00 0.00 0.00 0.00 0.00 0.00 0.00 0.00 0.00 0.00
0.00 0.00 0.00 0.00 0.00 0.00 0.00 0.00 0.00 0.00 0.00 0.00 0.00 0.00 0.00 0.00 0.00 0.00 0.00 0.00 0.00 0.00 0.00 0.00 0.00 0.00 0.00 0.00 0.00 0.00 0.00 0.00 0.00 0.00 0.00 0.00 0.00 0.00 0.00 0.00 0.00 0.00 0.00 0.00
0.02 0.00 0.00 0.02 0.00 0.00 0.00 0.00 0.00 0.00 0.00 0.00 0.00 0.00 0.00 0.00 0.00 0.00 0.00 0.00 0.00 0.00 0.00 0.00 0.00 0.00 0.00 0.00 0.00 0.00 0.00 0.00 0.00 0.00 0.00 0.00 0.00 0.00 0.00 0.00 0.00 0.00 0.00 0.00
0.11 0.07 0.05 0.08 0.07 0.03 0.01 0.00 0.00 0.00 0.00 0.00 0.00 0.00 0.00 0.00 0.00 0.01 0.02 0.03 0.01 0.00 0.01 0.01 0.00 0.00 0.00 0.00 0.00 0.00 0.00 0.00 0.00 0.00 0.00 0.00 0.00 0.00 0.00 0.00 0.00 0.00 0.00 0.00
0.20 0.18 0.20 0.15 0.14 0.06 0.03 0.01 0.01 0.01 0.00 0.00 0.00 0.00 0.00 0.00 0.01 0.06 0.08 0.09 0.05 0.05 0.03 0.01 0.02 0.02 0.00 0.00 0.00 0.00 0.00 0.00 0.00 0.00 0.00 0.00 0.00 0.00 0.00 0.00 0.00 0.00 0.00 0.00
0.09 0.11 0.11 0.07 0.02 0.01 0.00 0.00 0.01 0.01 0.01 0.01 0.02 0.03 0.04 0.04 0.10 0.10 0.07 0.06 0.05 0.07 0.07 0.09 0.07 0.01 0.00 0.00 0.00 0.00 0.00 0.00 0.00 0.00 0.00 0.00 0.00 0.00 0.00 0.00 0.00 0.00 0.00 0.00
0.00 0.01 0.02 0.02 0.01 0.01 0.02 0.02 0.03 0.02 0.03 0.03 0.06 0.07 0.07 0.08 0.07 0.05 0.06 0.07 0.08 0.08 0.03 0.00 0.00 0.00 0.00 0.00 0.00 0.00 0.00 0.00 0.00 0.00 0.00 0.00 0.00 0.00 0.00 0.00 0.00 0.00 0.00 0.00
0.00 0.00 0.00 0.00 0.00 0.00 0.00 0.00 0.00 0.01 0.01 0.01 0.02 0.02 0.02 0.04 0.04 0.05 0.06 0.07 0.03 0.01 0.00 0.00 0.00 0.00 0.00 0.00 0.00 0.00 0.00 0.00 0.00 0.00 0.00 0.00 0.00 0.00 0.00 0.00 0.00 0.00 0.00 0.00
MSLP
1011.54 1011.72 1011.77 1011.66 1011.44 1011.67 1011.90 1012.30 1013.13 1012.20 1012.02 1013.05 1013.78 1013.51 1012.03 1010.87 1010.31 1009.88 1009.93 1010.11 1010.65 1011.15 1012.15 1013.26 1014.17 1015.02 1015.30 1015.21 1015.31 1015.70 1016.14 1016.75 1017.35 1017.04 1016.45 1016.19 1016.50 1017.39 1018.69 1020.82 1022.25 1022.98 1022.85 1021.71
1011.15 1011.64 1011.57 1011.40 1011.27 1011.43 1011.76 1012.49 1012.97 1012.46 1012.44 1013.50 1013.94 1012.98 1011.96 1011.08 1010.67 1010.38 1010.27 1010.62 1010.91 1011.40 1012.54 1013.92 1014.93 1015.53 1015.94 1015.68 1016.11 1016.57 1016.88 1017.68 1018.54 1018.49 1017.92 1017.13 1017.19 1017.80 1018.81 1020.35 1021.77 1022.83 1023.26 1021.84
1011.17 1011.38 1011.26 1011.20 1011.12 1011.22 1011.61 1012.52 1013.31 1013.45 1013.35 1013.43 1013.30 1013.03 1012.17 1011.58 1010.97 1010.72 1010.60 1011.00 1011.25 1012.11 1013.24 1013.98 1015.34 1015.99 1016.30 1016.30 1016.71 1017.16 1017.40 1018.31 1018.93 1019.04 1018.58 1018.27 1018.17 1018.47 1019.18 1020.29 1021.86 1022.48 1022.39 1021.59
1011.16 1011.39 1011.17 1011.07 1010.95 1011.07 1011.55 1012.11 1012.62 1012.38 1013.43 1013.59 1013.16 1012.87 1012.19 1011.83 1011.47 1011.19 1011.12 1011.63 1012.09 1012.87 1014.17 1014.97 1015.95 1016.51 1016.86 1017.04 1017.34 1017.60 1018.27 1019.52 1019.99 1020.07 1019.80 1019.26 1019.06 1019.13 1019.44 1020.13 1020.72 1021.65 1021.60 1021.83
1011.02 1011.14 1010.94 1010.84 1010.81 1011.00 1011.59 1011.81 1012.01 1012.21 1012.52 1012.74 1013.07 1012.79 1012.46 1012.05 1011.92 1011.86 1012.09 1012.53 1013.07 1013.53 1014.69 1015.36 1016.18 1016.54 1017.19 1017.47 1017.99 1018.47 1019.28 1020.64 1021.19 1021.49 1021.10 1020.77 1020.04 1019.52 1019.40 1019.73 1020.07 1020.76 1021.54 1022.20
1010.92 1010.97 1010.83 1010.72 1010.78 1011.02 1011.13 1010.98 1010.84 1011.32 1012.79 1013.07 1013.14 1012.69 1012.29 1012.16 1012.22 1012.64 1012.84 1013.39 1014.21 1014.89 1015.61 1015.91 1016.45 1016.70 1016.97 1017.57 1018.40 1019.54 1020.65 1022.17 1023.24 1023.49 1022.91 1021.91 1021.00 1019.58 1019.40 1019.70 1020.17 1020.59 1021.49 1022.16
1010.88 1010.78 1010.69 1010.58 1010.68 1010.78 1010.60 1010.79 1011.06 1012.09 1013.45 1013.12 1012.82 1012.23 1012.11 1012.42 1012.67 1013.27 1014.00 1014.14 1014.61 1015.78 1016.14 1016.60 1017.03 1017.87 1018.47 1018.71 1019.46 1019.86 1021.59 1023.37 1024.63 1025.27 1024.50 1023.34 1020.63 1019.16 1018.98 1019.74 1020.57 1020.95 1021.78 1022.72
1010.73 1010.63 1010.50 1010.35 1010.34 1010.32 1010.69 1010.72 1010.93 1012.29 1013.59 1013.31 1012.62 1012.44 1013.13 1013.34 1013.81 1014.46 1014.83 1015.05 1015.19 1015.80 1016.96 1018.84 1020.01 1020.62 1020.56 1020.83 1021.07 1021.13 1021.70 1023.73 1025.95 1026.51 1025.66 1023.47 1020.87 1019.58 1019.24 1019.65 1020.94 1021.53 1022.17 1023.02
1010.68 1010.54 1010.41 1010.23 1010.09 1010.01 1010.28 1010.63 1010.65 1011.55 1012.85 1013.51 1012.99 1012.90 1013.05 1014.03 1014.75 1015.74 1015.77 1015.74 1015.91 1016.79 1019.39 1020.92 1022.03 1022.26 1021.79 1021.99 1022.03 1022.34 1022.93 1023.93 1025.49 1026.98 1026.58 1024.19 1020.87 1019.41 1019.08 1019.65 1021.05 1021.35 1022.20 1023.09
1010.55 1010.48 1010.32 1010.08 1009.92 1009.65 1009.74 1010.68 1010.56 1011.18 1013.11 1013.25 1012.91 1013.04 1013.20 1013.79 1014.92 1016.07 1016.44 1016.54 1017.32 1018.38 1021.08 1022.91 1023.82 1023.06 1021.95 1022.29 1022.58 1023.08 1023.98 1025.21 1026.16 1026.64 1025.82 1023.15 1020.54 1019.53 1019.54 1020.74 1020.98 1021.32 1022.08 1022.75
1010.78 1010.62 1010.46 1010.17 1009.99 1009.77 1009.72 1010.98 1010.68 1010.94 1012.94 1013.67 1013.23 1012.96 1013.04 1013.61 1014.32 1015.57 1016.55 1017.40 1018.38 1020.16 1021.96 1023.43 1023.98 1023.60 1022.50 1022.31 1022.08 1022.38 1023.18 1024.42 1025.28 1025.71 1025.15 1022.16 1019.80 1019.88 1020.08 1020.03 1020.50 1021.16 1021.97 1022.55
1010.85 1010.84 1010.72 1010.51 1010.24 1010.00 1009.87 1011.20 1010.97 1010.96 1012.54 1013.99 1013.61 1013.52 1013.40 1013.19 1013.50 1014.33 1015.99 1016.87 1017.88 1019.05 1021.45 1023.22 1023.56 1023.53 1023.14 1022.84 1022.26 1021.43 1021.86 1021.27 1021.89 1022.44 1021.47 1019.80 1019.29 1019.14 1019.24 1019.74 1020.59 1021.53 1022.02 1022.36
1011.09 1011.12 1010.98 1010.78 1010.49 1010.09 1009.95 1011.22 1011.53 1011.87 1013.56 1014.47 1014.17 1014.11 1013.71 1013.26 1013.52 1013.50 1014.89 1016.65 1017.04 1018.48 1019.31 1021.83 1022.86 1023.45 1022.84 1022.60 1021.67 1020.77 1019.87 1019.81 1020.42 1020.91 1019.67 1019.66 1019.69 1019.81 1019.89 1020.31 1020.93 1021.43 1021.82 1022.29
1011.40 1011.40 1011.24 1011.10 1010.82 1010.44 1010.32 1011.62 1012.17 1012.71 1014.47 1015.33 1015.42 1014.49 1014.44 1014.08 1013.69 1013.71 1014.21 1015.25 1016.68 1018.21 1019.63 1021.52 1022.47 1022.63 1021.84 1021.81 1020.84 1020.40 1019.11 1019.00 1019.32 1019.91 1019.98 1020.09 1020.26 1020.26 1020.45 1020.91 1021.15 1021.55 1021.90 1022.30
1011.73 1011.72 1011.63 1011.50 1011.30 1011.19 1011.25 1011.96 1012.76 1012.63 1013.50 1015.55 1016.03 1015.41 1015.23 1014.83 1014.65 1014.80 1015.09 1015.83 1017.11 1018.89 1020.58 1021.63 1021.86 1021.40 1021.49 1021.28 1020.82 1019.88 1018.21 1017.99 1018.53 1018.63 1018.62 1019.08 1019.71 1020.04 1020.54 1020.93 1021.30 1021.67 1022.08 1022.45
1012.06 1012.07 1012.02 1011.89 1011.66 1011.53 1012.07 1013.07 1013.14 1013.21 1013.27 1015.35 1016.89 1016.83 1016.35 1015.94 1015.70 1016.00 1016.48 1016.90 1017.73 1018.92 1020.08 1020.92 1020.76 1020.04 1020.29 1021.06 1020.63 1018.08 1017.54 1017.41 1017.38 1018.00 1018.59 1019.13 1019.52 1020.21 1020.73 1021.09 1021.37 1021.71 1021.97 1022.39
1012.40 1012.48 1012.43 1012.13 1011.98 1012.36 1013.42 1014.42 1014.45 1013.90 1013.82 1015.89 1018.04 1017.88 1017.35 1016.98 1016.99 1017.61 1017.92 1017.99 1018.55 1019.11 1020.17 1020.76 1020.87 1020.46 1020.35 1020.62 1019.71 1017.70 1017.30 1017.41 1017.77 1018.13 1018.66 1019.89 1020.14 1020.39 1020.74 1021.04 1021.33 1021.83 1022.33 1022.83
1012.71 1012.79 1012.89 1012.95 1012.98 1013.48 1014.20 1014.53 1014.15 1014.06 1015.20 1016.76 1018.55 1019.17 1018.63 1017.90 1018.51 1019.26 1019.21 1019.40 1019.57 1020.04 1020.49 1020.75 1020.81 1020.67 1020.69 1020.02 1018.01 1017.54 1017.47 1017.83 1018.27 1018.44 1018.55 1018.84 1019.57 1020.12 1020.66 1021.22 1021.70 1022.31 1022.90 1023.35
1012.97 1013.10 1013.13 1013.26 1013.95 1014.95 1015.35 1015.00 1014.73 1014.63 1015.93 1018.11 1019.17 1019.29 1019.19 1018.69 1019.67 1020.06 1020.14 1020.28 1020.87 1021.08 1020.88 1020.83 1020.99 1020.77 1020.02 1018.12 1017.89 1017.59 1017.69 1017.70 1018.09 1018.68 1019.07 1019.49 1019.94 1020.52 1021.03 1021.65 1022.27 1022.73 1023.28 1023.65
1013.35 1013.46 1014.13 1015.59 1015.87 1015.81 1015.39 1015.35 1015.56 1015.95 1017.30 1018.26 1019.15 1019.23 1019.40 1019.33 1020.37 1020.84 1021.22 1021.20 1021.42 1021.36 1021.03 1020.82 1020.61 1019.63 1018.59 1018.15 1017.87 1017.62 1017.59 1017.82 1018.32 1018.80 1019.71 1020.34 1020.81 1021.48 1021.99 1022.37 1022.89 1023.19 1023.62 1024.07
1014.12 1015.04 1015.79 1016.22 1015.90 1015.92 1016.70 1017.24 1017.68 1018.19 1018.76 1018.88 1019.14 1019.34 1019.48 1019.68 1020.35 1020.95 1021.20 1021.40 1021.52 1021.36 1020.92 1020.92 1020.26 1019.56 1018.91 1018.35 1018.12 1018.03 1018.17 1018.49 1018.93 1019.48 1020.32 1020.78 1021.64 1022.21 1022.66 1023.06 1023.35 1023.71 1024.02 1024.34
1014.88 1015.11 1016.06 1016.49 1016.87 1017.37 1017.89 1018.19 1018.72 1018.84 1019.30 1019.43 1019.46 1019.71 1019.79 1020.12 1020.01 1020.58 1021.29 1021.27 1021.35 1020.90 1020.70 1020.84 1019.91 1019.50 1019.26 1018.95 1018.90 1019.06 1019.19 1019.68 1020.36 1021.09 1021.65 1021.98 1022.29 1022.69 1023.18 1023.61 1023.86 1024.13 1024.23 1024.49
1015.25 1015.81 1017.02 1017.37 1018.39 1018.36 1018.32 1018.51 1018.93 1019.25 1019.48 1019.69 1019.87 1020.22 1020.29 1020.39 1020.42 1020.74 1020.99 1021.00 1020.79 1020.51 1020.71 1020.36 1019.91 1019.64 1019.72 1019.75 1019.89 1020.29 1020.60 1020.97 1021.43 1021.87 1022.10 1022.44 1022.86 1023.18 1023.64 1023.94 1023.99 1024.25 1024.38 1024.33
1016.96 1017.52 1018.24 1018.49 1018.88 1019.03 1018.96 1019.12 1019.29 1019.62 1019.67 1019.92 1020.09 1020.46 1020.61 1020.75 1020.72 1020.68 1020.66 1020.63 1020.59 1020.65 1020.75 1020.67 1020.16 1020.15 1020.36 1020.45 1020.66 1020.97 1021.69 1021.96 1022.14 1022.48 1022.77 1023.06 1023.34 1023.57 1023.90 1023.95 1023.92 1024.38 1024.44 1024.14
1018.22 1018.46 1018.97 1019.27 1019.58 1019.66 1019.69 1019.80 1019.94 1020.11 1020.08 1020.23 1020.50 1020.75 1020.85 1021.01 1020.97 1020.85 1020.96 1020.99 1020.86 1020.76 1020.93 1020.92 1020.94 1020.84 1020.93 1021.11 1021.45 1021.90 1022.41 1022.61 1022.64 1022.84 1023.10 1023.34 1023.57 1023.69 1023.79 1023.62 1023.63 1023.75 1023.86 1023.93
1018.87 1019.31 1019.61 1019.80 1019.90 1020.12 1020.23 1020.36 1020.56 1020.66 1020.70 1020.75 1020.86 1021.05 1021.15 1021.25 1021.11 1021.14 1020.97 1021.08 1021.33 1021.72 1021.63 1021.42 1021.47 1021.59 1021.71 1021.89 1022.15 1022.39 1022.63 1022.85 1022.96 1023.04 1023.19 1023.35 1023.51 1023.58 1023.50 1023.29 1023.21 1023.17 1023.30 1023.43
1019.62 1020.01 1019.90 1020.06 1020.25 1020.51 1020.76 1020.84 1021.00 1020.98 1021.19 1021.35 1021.27 1021.47 1021.62 1021.54 1021.38 1021.36 1021.42 1021.83 1022.01 1022.07 1021.79 1021.73 1021.88 1022.00 1022.16 1022.41 1022.58 1022.69 1022.81 1022.95 1023.08 1023.13 1023.16 1023.20 1023.10 1023.09 1023.33 1023.19 1022.65 1022.50 1022.39 1022.38
Thickness
5564 5569 5575 5582 5591 5598 5605 5605 5598 5624 5633 5613 5608 5614 5642 5659 5661 5669 5665 5666 5658 5656 5651 5640 5631 5628 5635 5642 5645 5638 5640 5624 5608 5629 5644 5648 5642 5630 5615 5577 5594 5573 5559 5568
5563 5565 5573 5582 5590 5599 5604 5600 5604 5622 5626 5598 5607 5627 5645 5655 5656 5659 5661 5657 5659 5659 5646 5627 5630 5628 5632 5637 5634 5632 5634 5617 5588 5604 5619 5632 5631 5632 5620 5601 5577 5577 5543 5564
5558 5563 5572 5581 5590 5599 5605 5600 5591 5605 5614 5616 5620 5626 5637 5643 5654 5657 5660 5656 5657 5650 5641 5638 5626 5626 5631 5635 5633 5626 5632 5619 5608 5593 5611 5618 5619 5618 5611 5596 5559 5571 5568 5584
5554 5559 5570 5579 5590 5598 5603 5602 5604 5616 5601 5612 5625 5629 5637 5639 5640 5654 5657 5649 5649 5642 5630 5631 5620 5623 5625 5630 5626 5632 5623 5607 5612 5612 5611 5616 5614 5609 5602 5597 5591 5571 5581 5576
5552 5559 5569 5579 5589 5597 5601 5603 5608 5614 5613 5623 5623 5621 5629 5634 5640 5644 5642 5640 5639 5640 5630 5631 5618 5624 5620 5618 5624 5623 5614 5596 5603 5604 5598 5594 5600 5600 5600 5596 5602 5591 5573 5563
5551 5558 5569 5579 5588 5596 5603 5613 5622 5619 5609 5615 5616 5621 5631 5635 5639 5642 5639 5632 5621 5616 5625 5625 5622 5623 5624 5622 5616 5607 5601 5581 5569 5574 5569 5575 5568 5596 5600 5595 5589 5586 5570 5562
5549 5558 5568 5578 5588 5596 5608 5613 5618 5607 5600 5613 5619 5635 5640 5634 5638 5628 5627 5628 5622 5624 5625 5622 5619 5613 5609 5611 5604 5607 5586 5566 5541 5543 5543 5547 5592 5602 5599 5581 5576 5570 5561 5550
5549 5558 5567 5578 5588 5598 5605 5611 5616 5604 5577 5608 5624 5628 5618 5620 5621 5619 5618 5619 5624 5623 5614 5587 5587 5567 5582 5583 5588 5591 5591 5554 5535 5524 5539 5568 5590 5594 5586 5581 5567 5560 5552 5541
5550 5558 5567 5577 5588 5598 5601 5608 5614 5609 5591 5599 5614 5617 5619 5609 5607 5603 5609 5616 5617 5609 5575 5559 5555 5562 5577 5578 5583 5578 5576 5555 5538 5524 5514 5521 5574 5589 5589 5579 5548 5556 5545 5531
5550 5558 5567 5577 5587 5597 5604 5604 5611 5611 5596 5602 5612 5610 5612 5612 5604 5589 5600 5606 5602 5593 5542 5520 5529 5560 5580 5565 5561 5542 5542 5517 5522 5486 5487 5535 5568 5578 5576 5539 5548 5546 5536 5525
5547 5555 5564 5574 5582 5592 5599 5597 5605 5608 5589 5596 5603 5610 5614 5610 5605 5590 5594 5587 5579 5559 5549 5527 5529 5537 5553 5564 5572 5557 5546 5526 5512 5503 5485 5529 5572 5568 5553 5554 5546 5537 5525 5516
5546 5553 5561 5569 5578 5587 5594 5591 5598 5604 5597 5589 5597 5601 5606 5611 5611 5600 5590 5590 5585 5574 5551 5532 5546 5545 5549 5537 5550 5570 5564 5561 5546 5550 5548 5568 5569 5567 5557 5546 5534 5525 5515 5507
5543 5549 5557 5565 5574 5582 5590 5585 5588 5590 5575 5578 5583 5586 5596 5604 5605 5607 5587 5577 5587 5579 5568 5545 5532 5531 5538 5535 5540 5565 5573 5569 5549 5552 5570 5563 5549 5543 5538 5531 5521 5511 5505 5495
5539 5545 5553 5560 5568 5576 5582 5577 5578 5578 5561 5546 5567 5580 5582 5590 5597 5599 5596 5590 5578 5566 5555 5542 5541 5523 5545 5528 5545 5549 5563 5564 5557 5547 5542 5539 5536 5528 5519 5511 5506 5498 5491 5483
5535 5541 5548 5554 5561 5566 5571 5570 5568 5574 5572 5547 5545 5566 5570 5576 5581 5581 5581 5576 5568 5551 5536 5528 5529 5526 5532 5515 5530 5533 5560 5556 5533 5535 5550 5541 5527 5514 5507 5500 5493 5486 5478 5470
5529 5535 5541 5548 5554 5559 5560 5554 5561 5564 5567 5548 5534 5546 5554 5559 5564 5564 5562 5562 5555 5543 5533 5523 5534 5547 5531 5520 5525 5558 5558 5557 5553 5546 5529 5519 5510 5502 5496 5489 5482 5476 5467 5454
5523 5529 5535 5542 5548 5549 5544 5542 5547 5553 5556 5535 5521 5520 5537 5546 5548 5541 5541 5541 5539 5539 5521 5517 5523 5529 5522 5508 5518 5550 5547 5540 5530 5521 5513 5499 5494 5489 5485 5479 5471 5459 5448 5437
5517 5522 5527 5531 5535 5536 5533 5535 5542 5546 5536 5524 5509 5523 5516 5533 5516 5515 5519 5514 5518 5518 5517 5507 5505 5507 5499 5512 5531 5535 5532 5519 5511 5507 5507 5499 5488 5483 5473 5462 5451 5440 5430 5420
5510 5515 5519 5522 5520 5519 5521 5525 5531 5534 5528 5505 5495 5505 5511 5519 5508 5501 5500 5503 5498 5497 5499 5499 5495 5499 5511 5525 5523 5524 5511 5508 5500 5496 5491 5485 5478 5468 5457 5445 5434 5424 5414 5405
5502 5506 5502 5493 5499 5506 5512 5513 5508 5505 5501 5498 5493 5498 5505 5507 5489 5490 5489 5484 5489 5491 5485 5489 5487 5503 5508 5505 5508 5506 5500 5495 5492 5484 5472 5461 5452 5442 5434 5425 5414 5405 5395 5385
5490 5486 5483 5488 5495 5498 5490 5486 5489 5487 5496 5490 5498 5493 5501 5493 5488 5485 5473 5476 5472 5486 5483 5482 5486 5493 5493 5491 5489 5489 5486 5480 5474 5466 5454 5446 5433 5423 5413 5404 5395 5386 5378 5369
5481 5485 5479 5478 5474 5473 5479 5477 5474 5482 5491 5479 5487 5485 5485 5478 5477 5473 5464 5470 5465 5476 5465 5470 5480 5477 5474 5474 5473 5469 5466 5459 5449 5439 5429 5421 5413 5404 5394 5385 5377 5369 5359 5345
5472 5469 5463 5468 5456 5474 5484 5487 5478 5479 5469 5470 5470 5471 5464 5463 5463 5458 5458 5467 5468 5457 5463 5461 5461 5466 5461 5456 5451 5445 5439 5430 5423 5417 5410 5402 5395 5386 5377 5367 5360 5346 5342 5336
5449 5454 5454 5456 5454 5451 5452 5460 5463 5457 5457 5456 5455 5454 5455 5448 5454 5449 5459 5448 5446 5454 5442 5429 5450 5447 5444 5440 5432 5425 5412 5400 5398 5393 5387 5382 5371 5362 5353 5344 5338 5329 5325 5323
5435 5439 5442 5435 5432 5433 5436 5436 5440 5440 5442 5443 5443 5441 5441 5440 5439 5438 5434 5435 5438 5437 5434 5428 5421 5424 5417 5412 5406 5398 5389 5378 5378 5376 5365 5355 5348 5344 5342 5335 5329 5324 5315 5307
5420 5421 5423 5422 5427 5428 5427 5426 5426 5423 5425 5425 5426 5430 5433 5427 5426 5425 5429 5426 5419 5408 5409 5405 5404 5401 5394 5390 5384 5378 5375 5370 5365 5359 5355 5347 5336 5329 5331 5325 5316 5310 5303 5297
5409 5409 5408 5412 5414 5415 5414 5412 5413 5412 5415 5418 5417 5415 5409 5406 5410 5412 5409 5400 5398 5393 5392 5390 5388 5383 5377 5371 5368 5360 5360 5356 5350 5346 5340 5335 5329 5320 5313 5310 5311 5304 5298 5289